星链-37454(STARLINK-37454)

导读

STARLINK-37454(NORAD编号69375)是美国太空探索技术公司(SpaceX)星链低轨通信星座的成员卫星,2025年9月由猎鹰9号火箭从美国加州发射入轨,属于星链规模部署阶段的量产型卫星。该卫星采用平板化设计,搭载相控阵通信天线与激光星间链路,初始运行于约550公里高度的近地轨道,主要承担全球卫星宽带接入服务任务,支持低延迟网络传输。2026年SpaceX启动卫星降轨计划后,该卫星已被调整至约480公里高度运行,以降低故障后的空间碎片风险,目前在轨状态稳定。

Basic Information
目录编号:
69375
目录名称:
STARLINK-37454
国际标识:
2026-123Y
轨道中心:
EARTH
卫星名称:
星链-37454
卫星全名:
星链-37454(STARLINK-37454)
卫星状态:
在轨 (已飞行92 天)
发射日期:
2026-06-04 UTC
国别 :
美国 (US)
星等 :
--
Orbit Information
数据来源 国际轨道数据 AOE轨道数据
星历时间 2026-09-02T14:04:08+0800
1天前
查看轨道信息
2026-08-30T22:00:00+0800
4天前
查看轨道信息
半长轴 6840.823km 6840.867km
偏心率 0.0002036 0.0001085
轨道倾角 53.159° 53.161°
近地点辐角 91.156° 81.716°
升交点赤经 227.363° 239.843°
平近点角 268.968° 284.154°
近地点 461.293km 461.987km
远地点 464.079km 463.473km
周期 93.847分钟 93.848分钟
每日圈数 15.34406 15.343911
Detailed Information
固有亮度:
5
最大亮度:
2.5
卫星平台:
Starlink V1.0
覆盖范围:
全球
运营商:
太空探索技术公司
运营商所在国:
美国
制造商(研发单位):
太空探索技术公司
制造商所在国:
美国
使用方式:
暂无
Satellite Introduction
Starlink 计划是 SpaceX 推出的全球卫星互联网项目,通过发射低轨道卫星,为全球尤其是偏远地区提供高速、低延迟的互联网服务。自 2019 年起,Starlink 已部署数千颗卫星,旨在缩小全球数字鸿沟,推动互联网普及。该项目还为军事、航空等行业提供通信支持,带来广泛经济效益。
2D Orbit Map
3D Orbit Map
Orbit Altitude Analysis Chart
Orbit Inclination Analysis Chart
Orbit Comprehensive Analysis Chart
View Comprehensive Chart